Wetterdaten: Mittwoch, 31.12.2014
Datum Zeit Temp. A. Feuchte A. Luftdruck Regen Wind Richtung Richtung Sonnenschein ET UV Solar Taupunkt Windchill Windben Empfang
31.12.2014 00:00 -5,0 C 75 % 1032,8 hPa 0,0 l/m 0,0 km/h (0 Bft) S 180 0 min 0,000 mm 0,0 UV-I 0 W/m -8,7 C -5,0 C 0,0 km/h (0 Bft) 0,00 %
31.12.2014 01:00 -5,0 C 75 % 1032,8 hPa 0,0 l/m 0,0 km/h (0 Bft) S 180 0 min 0,000 mm 0,0 UV-I 0 W/m -8,7 C -5,0 C 0,0 km/h (0 Bft) 0,00 %
31.12.2014 02:00 -4,9 C 75 % 1032,8 hPa 0,0 l/m 0,0 km/h (0 Bft) S 180 0 min 0,000 mm 0,0 UV-I 0 W/m -8,6 C -4,9 C 0,0 km/h (0 Bft) 0,00 %
31.12.2014 03:00 -5,1 C 76 % 1032,8 hPa 0,0 l/m 0,0 km/h (0 Bft) S 180 0 min 0,000 mm 0,0 UV-I 0 W/m -8,7 C -5,1 C 0,0 km/h (0 Bft) 0,00 %
31.12.2014 04:00 -5,2 C 76 % 1032,5 hPa 0,0 l/m 0,0 km/h (0 Bft) S 180 0 min 0,000 mm 0,0 UV-I 0 W/m -8,8 C -5,2 C 0,0 km/h (0 Bft) 0,00 %
31.12.2014 05:00 -5,3 C 76 % 1032,9 hPa 0,0 l/m 0,0 km/h (0 Bft) S 180 0 min 0,000 mm 0,0 UV-I 0 W/m -8,8 C -5,3 C 0,0 km/h (0 Bft) 0,00 %
31.12.2014 06:00 -5,4 C 76 % 1033,3 hPa 0,0 l/m 0,0 km/h (0 Bft) S 180 0 min 0,000 mm 0,0 UV-I 0 W/m -8,9 C -5,4 C 0,0 km/h (0 Bft) 0,00 %
31.12.2014 07:00 -5,4 C 75 % 1034,0 hPa 0,0 l/m 0,0 km/h (0 Bft) S 180 0 min 0,000 mm 0,0 UV-I 0 W/m -9,1 C -5,4 C 0,0 km/h (0 Bft) 0,00 %
31.12.2014 08:00 -5,4 C 75 % 1034,7 hPa 0,0 l/m 0,0 km/h (0 Bft) S 180 0 min 0,000 mm 0,0 UV-I 16 W/m -9,1 C -5,4 C 0,0 km/h (0 Bft) 0,00 %
31.12.2014 09:00 -5,0 C 74 % 1034,6 hPa 0,0 l/m 0,0 km/h (0 Bft) S 180 0 min 0,000 mm 0,0 UV-I 52 W/m -8,9 C -5,0 C 0,0 km/h (0 Bft) 0,00 %
31.12.2014 10:00 -3,7 C 70 % 1034,8 hPa 0,0 l/m 0,0 km/h (0 Bft) S 180 0 min 0,000 mm 0,0 UV-I 55 W/m -8,4 C -3,7 C 0,0 km/h (0 Bft) 0,00 %
31.12.2014 11:00 -3,1 C 68 % 1035,3 hPa 0,0 l/m 0,0 km/h (0 Bft) S 180 0 min 0,000 mm 0,0 UV-I 80 W/m -8,1 C -3,1 C 0,0 km/h (0 Bft) 0,00 %
31.12.2014 12:00 -2,5 C 70 % 1034,9 hPa 0,0 l/m 0,0 km/h (0 Bft) S 180 0 min 0,000 mm 0,0 UV-I 101 W/m -7,2 C -2,5 C 0,0 km/h (0 Bft) 0,00 %
31.12.2014 13:00 -1,7 C 70 % 1034,4 hPa 0,0 l/m 0,0 km/h (0 Bft) S 180 0 min 0,000 mm 0,0 UV-I 75 W/m -6,4 C -1,7 C 0,0 km/h (0 Bft) 0,00 %
31.12.2014 14:00 -2,6 C 73 % 1035,2 hPa 0,0 l/m 0,0 km/h (0 Bft) S 180 0 min 0,000 mm 0,0 UV-I 36 W/m -6,8 C -2,6 C 0,0 km/h (0 Bft) 0,00 %
31.12.2014 15:00 -2,3 C 72 % 1035,2 hPa 0,0 l/m 0,0 km/h (0 Bft) S 180 0 min 0,000 mm 0,0 UV-I 2 W/m -6,6 C -2,3 C 0,0 km/h (0 Bft) 0,00 %
31.12.2014 16:00 -2,7 C 71 % 1035,7 hPa 0,0 l/m 0,0 km/h (0 Bft) S 180 0 min 0,000 mm 0,0 UV-I 0 W/m -7,2 C -2,7 C 0,0 km/h (0 Bft) 0,00 %
31.12.2014 17:00 -3,2 C 74 % 1035,7 hPa 0,0 l/m 0,0 km/h (0 Bft) S 180 0 min 0,000 mm 0,0 UV-I 0 W/m -7,2 C -3,2 C 0,0 km/h (0 Bft) 0,00 %
31.12.2014 18:00 -3,2 C 75 % 1036,2 hPa 0,0 l/m 0,0 km/h (0 Bft) S 180 0 min 0,000 mm 0,0 UV-I 0 W/m -7,0 C -3,2 C 0,0 km/h (0 Bft) 0,00 %
31.12.2014 19:00 -3,0 C 76 % 1036,9 hPa 0,0 l/m 0,0 km/h (0 Bft) S 180 0 min 0,000 mm 0,0 UV-I 0 W/m -6,6 C -3,0 C 0,0 km/h (0 Bft) 0,00 %
31.12.2014 20:00 -3,1 C 77 % 1036,6 hPa 0,0 l/m 0,0 km/h (0 Bft) S 180 0 min 0,000 mm 0,0 UV-I 0 W/m -6,5 C -3,1 C 0,0 km/h (0 Bft) 0,00 %
31.12.2014 21:00 -2,6 C 82 % 1037,1 hPa 0,0 l/m 0,0 km/h (0 Bft) S 180 0 min 0,000 mm 0,0 UV-I 0 W/m -5,2 C -2,6 C 0,0 km/h (0 Bft) 0,00 %
31.12.2014 22:00 -1,5 C 80 % 1036,9 hPa 0,0 l/m 0,0 km/h (0 Bft) S 180 0 min 0,000 mm 0,0 UV-I 0 W/m -4,5 C -1,5 C 0,0 km/h (0 Bft) 0,00 %
31.12.2014 23:00 -1,0 C 77 % 1036,8 hPa 0,0 l/m 0,0 km/h (0 Bft) S 180 0 min 0,000 mm 0,0 UV-I 0 W/m -4,5 C -1,0 C 0,0 km/h (0 Bft) 0,00 %
_ Min-Zeit 06:00 11:00 04:00 - 00:00 - - - - - - 07:00 06:00 00:00 00:00
Minimum _ -5,4 C 68 % 1032,5 hPa - 0,0 km/h (0 Bft) - - - - - - -9,1 C -5,4 C 0,0 km/h (0 Bft) 0,00 %
_ Max-Zeit 23:00 21:00 21:00 00:00 00:00 - - 00:00 00:00 00:00 12:00 22:00 23:00 00:00 00:00
Maximum _ -1,0 C 82 % 1037,1 hPa 0,0 l/m 0,0 km/h
S (0 Bft)
- - 0 min 0,000 mm 0,0 UV-I 101 W/m -4,5 C -1,0 C 0,0 km/h
S (0 Bft)
0,00 %
Durchschnitt _ -3,6 C 74 % 1034,9 hPa #0,0 l/m 0,0 km/h (0 Bft) - - - #0 min. #0,000 mm 0,0 UV-I 52 W/m -7,5 C -3,6 C 0,0 km/h (0 Bft) 0,00 %